Weather History for Eagle, AK

Change the Weather History Date:

Wednesday, June 12, 2013

  Actual Average (PABN) Record (PABN)
Temperature  
Mean Temperature 47 °F -  
Max Temperature 68 °F 57 °F 78 °F (1999)
Min Temperature 28 °F 48 °F 41 °F (2012)
Degree Days  
Heating Degree Days 18    
Moisture  
Dew Point 34 °F    
Average Humidity 54    
Maximum Humidity 92    
Minimum Humidity 22    
Precipitation  
Precipitation 0.00 in - - ()
Sea Level Pressure  
Sea Level Pressure 30.11 in    
Wind  
Wind Speed 3 mph (NE)    
Max Wind Speed 13 mph    
Max Gust Speed 18 mph    
Visibility 10 miles    
Events      
Averages and records for this station are not official NWS values.
T = Trace of Precipitation, MM = Missing Value Source: NWS Daily Summary

Daily Weather History Graph

Daily Weather History Graph

Search for Another Location

Airport:

Trip Planner

Search our weather history database for the weather conditions in past years. The results will help you decide how hot, cold, wet, or windy it might be!

Date:

Astronomy

Jun. 12, 2013 Rise Set
Actual Time 2:40 AM AKDT 12:10 AM AKDT
Civil Twilight Sun does not rise Sun does not rise
Nautical Twilight Sun does not rise Sun does not rise
Astronomical Twilight Sun does not rise Sun does not rise
Moon 8:21 AM AKDT (6/12) 12:28 AM AKDT (6/12)
Length of Visible Light 24h 00m
Length of Day
21h 30m
Waxing Crescent, 15% of the Moon is Illuminated
Jun 12
Waxing Crescent
Jun 16
First Quarter
Jun 23
Full
Jun 29
Last Quarter
Jul 7
New

Hourly Weather History & Observations

Time (AKDT) Temp. Windchill Dew Point Humidity Pressure Visibility Wind Dir Wind Speed Gust Speed Precip Events Conditions
12:53 AM 35.1 °F 32.2 °F 32.0 °F 89% 30.18 in 10.0 mi South 3.5 mph - N/A   Clear
1:53 AM 32.0 °F - 28.9 °F 88% 30.18 in 10.0 mi Calm Calm - N/A   Clear
2:53 AM 30.9 °F - 27.0 °F 85% 30.18 in 10.0 mi Calm Calm - N/A   Clear
3:53 AM 28.9 °F - 27.0 °F 92% 30.18 in 10.0 mi Calm Calm - N/A   Clear
4:53 AM 33.1 °F - 28.9 °F 85% 30.18 in 10.0 mi Calm Calm - N/A   Clear
5:53 AM 42.1 °F - 36.0 °F 79% 30.17 in 10.0 mi Calm Calm - N/A   Clear
6:53 AM 44.1 °F 41.5 °F 37.0 °F 76% 30.17 in 10.0 mi NW 4.6 mph - N/A   Overcast
7:53 AM 48.0 °F - 37.9 °F 68% 30.16 in 10.0 mi Calm Calm - N/A   Scattered Clouds
8:53 AM 52.0 °F - 36.0 °F 54% 30.15 in 10.0 mi Calm Calm - N/A   Clear
9:53 AM 55.9 °F - 37.0 °F 49% 30.13 in 10.0 mi Variable 3.5 mph - N/A   Clear
10:53 AM 60.1 °F - 35.1 °F 39% 30.12 in 10.0 mi Calm Calm - N/A   Mostly Cloudy
11:53 AM 59.0 °F - 34.0 °F 39% 30.11 in 10.0 mi Variable 4.6 mph - N/A   Scattered Clouds
12:53 PM 62.1 °F - 32.0 °F 32% 30.10 in 10.0 mi Variable 3.5 mph - N/A   Clear
1:53 PM 63.0 °F - 30.9 °F 30% 30.08 in 10.0 mi West 5.8 mph - N/A   Clear
2:53 PM 64.9 °F - 32.0 °F 29% 30.07 in 10.0 mi Variable 5.8 mph - N/A   Clear
3:53 PM 66.0 °F - 26.1 °F 22% 30.05 in 10.0 mi Variable 3.5 mph - N/A   Clear
4:53 PM 66.0 °F - 35.1 °F 32% 30.05 in 10.0 mi ENE 9.2 mph - N/A   Mostly Cloudy
5:53 PM 63.0 °F - 35.1 °F 35% 30.05 in 10.0 mi NE 12.7 mph 18.4 mph N/A   Clear
6:53 PM 63.0 °F - 34.0 °F 34% 30.06 in 10.0 mi NE 11.5 mph - N/A   Clear
7:53 PM 63.0 °F - 35.1 °F 35% 30.05 in 10.0 mi NE 5.8 mph - N/A   Clear
8:53 PM 63.0 °F - 37.0 °F 38% 30.05 in 10.0 mi NE 5.8 mph - N/A   Clear
9:53 PM 60.1 °F - 37.0 °F 42% 30.06 in 10.0 mi North 5.8 mph - N/A   Clear
10:53 PM 52.0 °F - 37.9 °F 59% 30.08 in 10.0 mi Calm Calm - N/A   Clear
11:53 PM 44.1 °F 42.5 °F 36.0 °F 73% 30.09 in 10.0 mi South 3.5 mph - N/A   Clear